[Iaude] MPEC L123: 2024 LO3 [a=1.35,e=0.32,i=2.6,H=26.3]
    mpec at cfa.harvard.edu 
    mpec at cfa.harvard.edu
       
    Tue Jun 11 18:17:54 EDT 2024
    
    
  
M.P.E.C. 2024-L123                                Issued 2024 June 11, 22:16 UT
     The Minor Planet Electronic Circulars contain information on unusual
         minor planets, routine data on comets and natural satellites,
         and occasional editorial announcements.  They are published
    on behalf of Division F of the International Astronomical Union by the
          Minor Planet Center, Smithsonian Astrophysical Observatory,
                          Cambridge, MA 02138, U.S.A.
			  
             Prepared using the Tamkin Foundation Computer Network
                              MPC at CFA.HARVARD.EDU
            URL https://www.minorplanetcenter.net/    ISSN 1523-6714
                                    2024 LO3                                    
Observations:
     K24L03O*1C2024 06 10.31726616 49 18.437-16 00 13.03         20.49GVEL123G96
     K24L03O 1C2024 06 10.32162016 49 18.397-16 00 19.26         19.79GVEL123G96
     K24L03O 1C2024 06 10.32594416 49 18.556-16 00 24.91         21.12GVEL123G96
     K24L03O 1C2024 06 10.33030716 49 18.606-16 00 30.71         20.29GVEL123G96
     K24L03O KC2024 06 10.41122216 49 20.200-16 02 12.80         20.24GVEL123I52
     K24L03O KC2024 06 10.41500816 49 20.290-16 02 17.30         20.24GVEL123I52
     K24L03O KC2024 06 11.29097816 50 42.580-16 25 02.24         19.59GVEL123I52
     K24L03O KC2024 06 11.31331916 50 43.069-16 25 38.21         20.15GVEL123I52
     K24L03O KC2024 06 11.32130316 50 43.235-16 25 51.85         20.22GVEL123I52
     K24L03O KC2024 06 11.50979616 51 03.799-16 27 20.45         19.7 GVEL123474
     K24L03O KC2024 06 11.51341616 51 03.886-16 27 25.38         20.2 GVEL123474
     K24L03O KC2024 06 11.51703416 51 04.049-16 27 32.51         20.6 GVEL123474
     K24L03O KB2024 06 11.90166816 51 49.76 -16 43 46.7          19.6 GXEL123958
     K24L03O KB2024 06 11.90777416 51 50.02 -16 43 58.8          19.7 GXEL123958
     K24L03O KB2024 06 11.91383816 51 50.32 -16 44 11.5          19.5 GXEL123958
Observer details:
474 Mount John Observatory, Lake Tekapo.  Observers A. C. Gilmore, P. M.
    Kilmartin.  Measurer P. M. Kilmartin.  0.6-m f/6.3 Reflector + CCD.
958 Observatoire de Dax.  Observer P. Dupouy.  0.50-m f/4.5 Reflector + CMO.
G96 Mt. Lemmon Survey.  Observer G. J. Leonard.  Measurers T. Beuden, V. F.
    Carvajal, D. Fay, J. B. Fazekas, D. C. Fuls, A. R. Gibbs, A. D. Grauer, H.
    Groeller, J. K. Hogan, R. A. Kowalski, S. M. Larson, G. J. Leonard, D.
    Rankin, R. L. Seaman, F. C. Shelly, K. W. Wierzchos.  1.5-m reflector +
    10K CCD.
I52 Steward Observatory, Mt. Lemmon Station.  Observer J. B. Fazekas.
    Measurers T. Beuden, V. F. Carvajal, D. Fay, J. B. Fazekas, D. C. Fuls, A.
    R. Gibbs, A. D. Grauer, H. Groeller, J. K. Hogan, R. A. Kowalski, S. M.
    Larson, G. J. Leonard, D. Rankin, R. L. Seaman, F. C. Shelly, K. W.
    Wierzchos.  1.0-m prime focus + CCD.
Orbital elements:
2024 LO3                                                 Earth MOID = 0.0035 AU
Epoch 2024 Mar. 31.0 TT = JDT 2460400.5                 MPC                     
M 279.94878              (2000.0)            P               Q                  
n   0.62991062     Peri.  238.07190     +0.80920977     +0.58581390             
a   1.3477730      Node    86.03006     -0.52276626     +0.75268512             
e   0.3204491      Incl.    2.57040     -0.26813239     +0.30047826             
P   1.56           H   26.34          G   0.15           U   8                  
Residuals in seconds of arc
240610 G96  0.1-  0.2+    240610 I52  0.3-  0.1+    240611 474  0.2-  0.6+
240610 G96 (1.4-  0.3-)   240611 I52  0.2+  0.1-    240611 474  0.3+  0.3-
240610 G96  0.1+  0.2-    240611 I52 (0.0   1.2+)   240611 958  0.1+  0.6-
240610 G96  0.0   0.2-    240611 I52  0.3-  0.7+    240611 958  0.6-  0.0
240610 I52  0.0   0.0     240611 474  0.4+  0.8-    240611 958  0.7-  0.2-
Ephemeris:
2024 LO3                 a,e,i = 1.35, 0.32, 3                   q = 0.9159
Date    TT    R. A. (2000) Decl.     Delta      r    Elong.  Phase     V
2024 05 12    16 37 30.3 -14 09 18   0.2069  1.2068   160.0    16.6    24.2
...
2024 05 27    16 42 03.4 -14 02 31   0.1205  1.1322   170.5     8.5    22.6
...
2024 06 04    16 44 36.2 -14 33 30   0.07983 1.0936   172.1     7.3    21.6
...
2024 06 10    16 48 56.8 -15 51 01   0.05110 1.0657   170.8     8.7    20.6
2024 06 11    16 50 16.2 -16 14 42   0.04642 1.0612   170.6     9.0    20.4
2024 06 12    16 51 55.4 -16 44 00   0.04178 1.0567   170.5     9.1    20.2
...
2024 06 18    17 27 36.4 -26 08 51   0.01462 1.0306   174.9     5.0    17.7
...
2024 06 26    04 06 31.0 +03 00 19   0.02336 0.9982    38.1   141.1    25.2
...
2024 07 11    04 34 41.2 +10 42 57   0.09314 0.9489    41.5   134.8    27.3
A. U. Tomatic                (C) Copyright 2024 MPC           M.P.E.C. 2024-L123
    
    
More information about the Iaude
mailing list